Cavalier, ND

3:58 PM CDT on September 20, 2017 (GMT -0500)
Cavalier

Weather History for K2C8 - February, 2013

Change the Weather History Date:

Saturday, February 9, 2013

  Actual Average (KGAF) Record (KGAF)
Temperature  
Mean Temperature 24 °F -  
Max Temperature 26 °F 21 °F 48 °F (1977)
Min Temperature 23 °F 0 °F -33 °F (1959)
Degree Days  
Heating Degree Days 40    
Moisture  
Dew Point 24 °F    
Average Humidity 98    
Maximum Humidity 100    
Minimum Humidity 93    
Precipitation  
Precipitation 0.00 in - - ()
Sea Level Pressure  
Sea Level Pressure 29.91 in    
Wind  
Wind Speed 10 mph (SSW)    
Max Wind Speed 14 mph    
Max Gust Speed -    
Visibility 5 miles    
Events      
Averages and records for this station are not official NWS values.
T = Trace of Precipitation, MM = Missing Value Source: NWS Daily Summary

Daily Weather History Graph

Daily Weather History Graph

Search for Another Location

Airport or City:

Trip Planner

Search our weather history database for the weather conditions in past years. The results will help you decide how hot, cold, wet, or windy it might be!

Date:

Astronomy

Feb. 09, 2013 Rise Set
Actual Time 7:47 AM CST 5:42 PM CST
Civil Twilight 7:14 AM CST 6:15 PM CST
Nautical Twilight 6:37 AM CST 6:52 PM CST
Astronomical Twilight 6:01 AM CST 7:29 PM CST
Moon 6:59 AM CST (2/9) 5:29 PM CST (2/9)
Length of Visible Light 11h 00m
Length of Day
9h 54m
Waning Crescent, 0% of the Moon is Illuminated
Feb 9
Waning Crescent
Feb 10
New
Feb 17
First Quarter
Feb 25
Full
Mar 4
Last Quarter

Hourly Weather History & Observations

Time (CST) Temp. Windchill Dew Point Humidity Pressure Visibility Wind Dir Wind Speed Gust Speed Precip Events Conditions
12:15 AM 23.0 °F 11.1 °F 23.0 °F 100% 29.99 in 3.0 mi South 12.7 mph - N/A   Overcast
12:35 AM 23.0 °F 11.1 °F 23.0 °F 100% 29.98 in 3.0 mi South 12.7 mph - N/A   Overcast
12:55 AM 23.0 °F 10.6 °F 23.0 °F 100% 29.98 in 3.0 mi South 13.8 mph - N/A   Overcast
1:15 AM 23.0 °F 12.4 °F 23.0 °F 100% 29.97 in 3.0 mi South 10.4 mph - N/A   Overcast
1:35 AM 23.0 °F 10.6 °F 23.0 °F 100% 29.97 in 3.0 mi South 13.8 mph - N/A   Overcast
1:55 AM 23.0 °F 10.6 °F 23.0 °F 100% 29.96 in 3.0 mi South 13.8 mph - N/A   Overcast
2:15 AM 23.0 °F 11.7 °F 23.0 °F 100% 29.96 in 3.0 mi South 11.5 mph - N/A   Overcast
2:35 AM 23.0 °F 12.4 °F 23.0 °F 100% 29.95 in 3.0 mi South 10.4 mph - N/A   Overcast
2:55 AM 23.0 °F 11.7 °F 23.0 °F 100% 29.95 in 3.0 mi South 11.5 mph - N/A   Overcast
3:15 AM 23.0 °F 11.1 °F 23.0 °F 100% 29.94 in 3.0 mi South 12.7 mph - N/A   Overcast
3:35 AM 23.0 °F 12.4 °F 23.0 °F 100% 29.94 in 3.0 mi South 10.4 mph - N/A   Overcast
3:55 AM 23.0 °F 13.1 °F 23.0 °F 100% 29.93 in 3.0 mi South 9.2 mph - N/A   Overcast
4:15 AM 23.0 °F 13.1 °F 23.0 °F 100% 29.93 in 3.0 mi South 9.2 mph - N/A   Overcast
4:35 AM 23.0 °F 13.9 °F 23.0 °F 100% 29.93 in 2.0 mi South 8.1 mph - N/A   Overcast
4:55 AM 23.0 °F 12.4 °F 23.0 °F 100% 29.93 in 1.8 mi South 10.4 mph - N/A   Overcast
5:15 AM 23.0 °F 13.1 °F 23.0 °F 100% 29.93 in 2.0 mi South 9.2 mph - N/A   Overcast
5:35 AM 23.0 °F 13.9 °F 23.0 °F 100% 29.92 in 2.0 mi South 8.1 mph - N/A   Overcast
6:15 AM 23.0 °F 12.4 °F 23.0 °F 100% 29.92 in 2.5 mi South 10.4 mph - N/A   Overcast
6:35 AM 23.0 °F 14.7 °F 23.0 °F 100% 29.92 in 2.5 mi South 6.9 mph - N/A   Overcast
6:55 AM 23.0 °F 14.7 °F 23.0 °F 100% 29.93 in 3.0 mi SSW 6.9 mph - N/A   Overcast
7:15 AM 24.8 °F 16.1 °F 24.8 °F 100% 29.93 in 3.0 mi SSW 8.1 mph - N/A   Overcast
7:35 AM 24.8 °F 17.9 °F 24.8 °F 100% 29.92 in 3.0 mi SSW 5.8 mph - N/A   Overcast
7:55 AM 24.8 °F 20.5 °F 24.8 °F 100% 29.92 in 2.0 mi SW 3.5 mph - N/A   Overcast
8:15 AM 24.8 °F 15.3 °F 24.8 °F 100% 29.92 in 5.0 mi WSW 9.2 mph - N/A   Overcast
8:35 AM 24.8 °F 19.1 °F 24.8 °F 100% 29.91 in 5.0 mi WSW 4.6 mph - N/A   Overcast
8:55 AM 24.8 °F 16.9 °F 23.0 °F 93% 29.91 in 4.0 mi WSW 6.9 mph - N/A   Overcast
9:15 AM 24.8 °F 16.9 °F 23.0 °F 93% 29.91 in 3.0 mi SW 6.9 mph - N/A   Overcast
9:35 AM 24.8 °F 17.9 °F 23.0 °F 93% 29.92 in 3.0 mi SW 5.8 mph - N/A   Overcast
9:55 AM 24.8 °F 17.9 °F 24.8 °F 100% 29.91 in 3.0 mi SSW 5.8 mph - N/A   Overcast
10:15 AM 24.8 °F 16.1 °F 24.8 °F 100% 29.91 in 4.0 mi SW 8.1 mph - N/A   Overcast
10:35 AM 24.8 °F 16.1 °F 24.8 °F 100% 29.91 in 4.0 mi SW 8.1 mph - N/A   Overcast
10:55 AM 26.6 °F 19.1 °F 24.8 °F 93% 29.91 in 5.0 mi SW 6.9 mph - N/A   Overcast
11:15 AM 26.6 °F 19.1 °F 24.8 °F 93% 29.90 in 5.0 mi SW 6.9 mph - N/A   Overcast
11:35 AM 26.6 °F 16.8 °F 24.8 °F 93% 29.91 in 5.0 mi SSW 10.4 mph - N/A   Overcast
11:55 AM 26.6 °F 19.1 °F 24.8 °F 93% 29.90 in 5.0 mi WSW 6.9 mph - N/A   Overcast
12:15 PM 26.6 °F 17.5 °F 24.8 °F 93% 29.90 in 5.0 mi SW 9.2 mph - N/A   Overcast
12:35 PM 26.6 °F 19.1 °F 24.8 °F 93% 29.90 in 5.0 mi WSW 6.9 mph - N/A   Overcast
12:55 PM 26.6 °F 18.2 °F 24.8 °F 93% 29.89 in 7.0 mi SW 8.1 mph - N/A   Overcast
1:15 PM 26.6 °F 19.1 °F 24.8 °F 93% 29.88 in 6.0 mi SW 6.9 mph - N/A   Overcast
1:35 PM 26.6 °F 19.1 °F 24.8 °F 93% 29.89 in 7.0 mi SW 6.9 mph - N/A   Overcast
1:55 PM 26.6 °F 20.0 °F 24.8 °F 93% 29.88 in 7.0 mi SW 5.8 mph - N/A   Overcast
2:15 PM 26.6 °F 19.1 °F 24.8 °F 93% 29.87 in 7.0 mi SW 6.9 mph - N/A   Overcast
2:35 PM 26.6 °F 20.0 °F 24.8 °F 93% 29.87 in 8.0 mi SW 5.8 mph - N/A   Overcast
2:55 PM 26.6 °F 17.5 °F 24.8 °F 93% 29.87 in 8.0 mi SSW 9.2 mph - N/A   Overcast
3:15 PM 26.6 °F 19.1 °F 24.8 °F 93% 29.87 in 8.0 mi SSW 6.9 mph - N/A   Overcast
3:35 PM 26.6 °F 18.2 °F 24.8 °F 93% 29.87 in 8.0 mi SSW 8.1 mph - N/A   Overcast
3:55 PM 26.6 °F 20.0 °F 24.8 °F 93% 29.87 in 7.0 mi SW 5.8 mph - N/A   Overcast
4:15 PM 26.6 °F 18.2 °F 24.8 °F 93% 29.87 in 8.0 mi SSW 8.1 mph - N/A   Overcast
4:35 PM 26.6 °F 18.2 °F 24.8 °F 93% 29.88 in 8.0 mi South 8.1 mph - N/A   Overcast
4:55 PM 26.6 °F 19.1 °F 24.8 °F 93% 29.87 in 7.0 mi South 6.9 mph - N/A   Overcast
5:15 PM 24.8 °F 17.9 °F 24.8 °F 100% 29.88 in 8.0 mi SSW 5.8 mph - N/A   Overcast
5:35 PM 24.8 °F 15.3 °F 24.8 °F 100% 29.88 in 8.0 mi South 9.2 mph - N/A   Overcast
5:55 PM 24.8 °F 17.9 °F 24.8 °F 100% 29.88 in 8.0 mi SSW 5.8 mph - N/A   Overcast
6:15 PM 24.8 °F 16.9 °F 24.8 °F 100% 29.88 in 10.0 mi South 6.9 mph - N/A   Overcast
6:35 PM 24.8 °F 16.1 °F 24.8 °F 100% 29.89 in 10.0 mi South 8.1 mph - N/A   Overcast
6:55 PM 24.8 °F 17.9 °F 24.8 °F 100% 29.89 in 9.0 mi SW 5.8 mph - N/A   Overcast
7:35 PM 24.8 °F 16.9 °F 24.8 °F 100% 29.89 in 9.0 mi SSW 6.9 mph - N/A   Overcast
7:55 PM 24.8 °F 14.0 °F 24.8 °F 100% 29.89 in 7.0 mi South 11.5 mph - N/A   Overcast
8:15 PM 24.8 °F 16.9 °F 24.8 °F 100% 29.89 in 7.0 mi SW 6.9 mph - N/A   Overcast
8:35 PM 24.8 °F 16.1 °F 24.8 °F 100% 29.89 in 5.0 mi SSW 8.1 mph - N/A   Overcast
8:55 PM 24.8 °F 14.6 °F 24.8 °F 100% 29.89 in 5.0 mi South 10.4 mph - N/A   Overcast
9:35 PM 24.8 °F 16.1 °F 24.8 °F 100% 29.89 in 5.0 mi South 8.1 mph - N/A   Overcast
9:55 PM 24.8 °F 15.3 °F 24.8 °F 100% 29.89 in 5.0 mi South 9.2 mph - N/A   Overcast
10:15 PM 24.8 °F 15.3 °F 24.8 °F 100% 29.90 in 5.0 mi South 9.2 mph - N/A   Overcast
10:35 PM 24.8 °F 14.6 °F 24.8 °F 100% 29.89 in 4.0 mi SSW 10.4 mph - N/A   Overcast
10:55 PM 24.8 °F 14.6 °F 24.8 °F 100% 29.89 in 4.0 mi South 10.4 mph - N/A   Overcast
11:15 PM 24.8 °F 12.9 °F 24.8 °F 100% 29.89 in 4.0 mi South 13.8 mph - N/A   Overcast
11:35 PM 23.0 °F 12.4 °F 23.0 °F 100% 29.90 in 3.0 mi SSW 10.4 mph - N/A   Overcast
11:55 PM 23.0 °F 12.4 °F 23.0 °F 100% 29.90 in 2.5 mi SSW 10.4 mph - N/A   Overcast